Regional Weather Roundup
Issued by NWS Charleston, WV

Home | Current Version | Previous Version | Graphics & Text | Print | Product List | Glossary On
Versions: 1 2 3 4 5 6 7 8 9 10 11 12 13 14 15 16 17 18 19 20 21 22 23 24 25 26 27 28
000
ASUS41 KRLX 190510
RWRRLX
West Virginia Regional Weather Roundup
National Weather Service Charleston WV
100 AM EDT SAT AUG 19 2017

Note: "fair" indicates few or no clouds below 12,000 feet with no
significant weather and/or obstructions to visibility.

WVZ003-190600-
Northern Panhandle of West Virginia

CITY           SKY/WX    TMP DP  RH WIND       PRES   REMARKS
WHEELING         N/A     69  64  84 SW5       29.94R
$$

WVZ009-190600-
Northwest West Virginia

CITY           SKY/WX    TMP DP  RH WIND       PRES   REMARKS
PARKERSBURG      N/A     66  65  96 CALM      29.97S
$$

WVZ006-190600-
Western West Virginia

CITY           SKY/WX    TMP DP  RH WIND       PRES   REMARKS
HUNTINGTON       N/A     71  66  84 S3        29.96R
$$

WVZ015-190600-
West Central West Virginia

CITY           SKY/WX    TMP DP  RH WIND       PRES   REMARKS
CHARLESTON       N/A     68  66  93 CALM      29.98R
$$

WVZ022-031-190600-
North Central West Virginia

CITY           SKY/WX    TMP DP  RH WIND       PRES   REMARKS
CLARKSBURG       N/A     66  63  90 CALM      29.96S
MORGANTOWN       N/A     68  63  84 S3        29.96S
$$

WVZ025-035-042-045-190600-
Southern West Virginia

CITY           SKY/WX    TMP DP  RH WIND       PRES   REMARKS
BECKLEY          N/A     64  63  96 S3        30.06R
LOGAN            N/A     68  66  94 CALM      30.02R
BLUEFIELD        N/A     64  64 100 SW3       30.09R FOG
LEWISBURG        N/A     64  63  97 CALM      30.04S FOG
$$

WVZ047-190600-
Northern Mountains of West Virginia

CITY           SKY/WX    TMP DP  RH WIND       PRES   REMARKS
ELKINS           N/A     63  61  93 CALM      30.02S FOG
$$

WVZ052-190600-
Eastern Panhandle of West Virginia

CITY           SKY/WX    TMP DP  RH WIND       PRES   REMARKS
MARTINSBURG      N/A     73  65  75 SW3       29.88R
PETERSBURG       N/A     70  70  99 CALM      29.94S FOG
$$




USA.gov is the U.S. government's official web portal to all federal, state and local government web resources and services.